DW9584 Weather Reports


time (UTC)temp
F
wind
direction
speed
knots
gust
knots
rain 1hr
in
rain 24hr
in
rain mn
in
humidity
%
barometer
mb
20260905120027 67 250 0.0 1.7 0.00 0.12 0.01 96 1012.0
20260905114517 68 101 0.0 1.7 0.00 0.12 0.01 96 1011.9
20260905113014 68 101 0.0 1.7 0.00 0.12 0.01 96 1011.5
20260905111514 68 46 0.0 0.9 0.00 0.12 0.01 96 1011.4
20260905110031 68 46 0.0 0.0 0.00 0.12 0.01 96 1011.2
20260905104541 68 46 0.0 1.7 0.00 0.12 0.01 96 1011.1
20260905103033 69 46 0.0 0.0 0.00 0.12 0.01 96 1011.0
20260905101526 69 46 0.0 0.0 0.00 0.12 0.01 96 1010.9
20260905100029 69 46 0.0 0.0 0.00 0.12 0.01 96 1010.8
20260905094504 69 46 0.0 0.0 0.00 0.12 0.01 96 1010.8
20260905093003 69 46 0.0 1.7 0.00 0.12 0.01 96 1010.8
20260905091502 69 46 0.0 0.0 0.00 0.12 0.01 96 1010.9
20260905090003 69 46 0.0 0.0 0.00 0.12 0.01 96 1010.9
20260905084506 70 46 0.0 0.0 0.00 0.12 0.01 96 1010.8
20260905083004 70 46 0.0 0.0 0.00 0.12 0.01 96 1010.7
20260905081504 70 46 0.0 0.0 0.00 0.13 0.01 96 1010.8
20260905080003 70 46 0.0 0.0 0.00 0.13 0.01 96 1010.8
20260905074504 70 46 0.0 0.0 0.00 0.13 0.01 96 1010.8
20260905073010 70 46 0.0 0.0 0.00 0.13 0.01 95 1010.7
20260905071504 70 46 0.0 0.0 0.00 0.13 0.01 95 1010.8
20260905070005 70 46 0.0 0.0 0.00 0.13 0.01 95 1011.0
20260905064510 70 46 0.0 0.0 0.00 0.13 0.01 95 1011.0
20260905063004 70 46 0.0 0.0 0.00 0.13 0.01 95 1010.9
20260905061505 70 46 0.0 0.0 0.00 0.13 0.01 95 1011.1
20260905060006 70 46 0.0 0.0 0.00 0.13 0.01 95 1011.2
20260905054506 70 46 0.0 0.0 0.00 0.13 0.01 95 1011.2
20260905053018 70 46 0.0 0.0 0.00 0.13 0.01 94 1011.3
20260905051507 70 46 0.0 0.0 0.00 0.13 0.01 94 1011.5
20260905050011 71 46 0.0 0.0 0.01 0.13 0.01 94 1011.4
20260905044515 71 46 0.0 0.0 0.02 0.13 0.01 93 1011.6
20260905043008 73 46 0.0 1.7 0.12 0.14 0.01 93 1011.8
20260905041510 74 359 0.0 1.7 0.12 0.23 0.01 93 1011.7
20260905040012 74 359 0.0 0.0 0.11 0.31 0.00 92 1011.7
20260905034511 75 185 0.0 1.7 0.10 0.30 0.30 91 1011.6
20260905033016 75 222 0.0 0.0 0.00 0.20 0.20 90 1011.7
20260905031508 75 222 0.0 0.0 0.00 0.20 0.20 90 1011.5
20260905030012 75 222 0.0 0.0 0.00 0.20 0.20 90 1011.5
20260905024512 75 222 0.0 0.0 0.00 0.20 0.20 89 1011.4
20260905023009 75 222 0.0 0.0 0.00 0.20 0.20 88 1011.4
20260905021510 75 222 0.0 0.0 0.00 0.20 0.20 88 1011.5
20260905020010 75 222 0.0 0.0 0.00 0.20 0.20 88 1011.4
20260905014507 75 222 0.0 0.0 0.00 0.20 0.20 88 1011.3
20260905013004 75 222 0.0 0.0 0.00 0.20 0.20 88 1011.4
20260905011502 76 222 0.0 0.0 0.00 0.20 0.20 87 1011.4
20260905010004 76 222 0.0 0.0 0.00 0.20 0.20 87 1011.5
20260905004507 76 222 0.0 0.0 0.00 0.20 0.20 86 1011.5
20260905003021 76 222 0.0 0.0 0.00 0.20 0.20 86 1011.3
20260905001516 76 222 0.0 0.0 0.00 0.20 0.20 85 1011.0
20260905000026 77 222 0.0 0.0 0.00 0.20 0.20 84 1011.1
20260904234509 77 222 0.0 0.0 0.00 0.20 0.20 83 1010.9
20260904233005 77 222 0.0 0.0 0.00 0.20 0.20 81 1011.0
20260904231506 78 222 0.0 0.0 0.00 0.20 0.20 80 1011.1
20260904230006 79 222 0.0 0.0 0.00 0.20 0.20 79 1011.2
20260904224527 80 222 0.0 1.7 0.00 0.20 0.20 77 1011.4
20260904223021 81 188 0.0 1.7 0.00 0.20 0.20 74 1011.2
20260904221521 81 285 0.0 1.7 0.00 0.20 0.20 74 1011.2
20260904220024 81 231 0.0 1.7 0.00 0.20 0.20 74 1011.5
20260904214515 81 279 0.0 1.7 0.00 0.20 0.20 73 1011.6
20260904213009 82 324 0.0 3.5 0.00 0.20 0.20 70 1011.8
20260904211510 82 290 0.0 2.6 0.00 0.20 0.20 70 1011.7
20260904210006 82 77 0.0 1.7 0.00 0.20 0.20 70 1011.3
20260904204526 84 141 0.0 2.6 0.00 0.20 0.20 65 1011.3
20260904203042 84 104 0.0 3.5 0.00 0.20 0.20 65 1011.4
20260904201523 84 167 0.0 3.5 0.00 0.20 0.20 65 1011.6
20260904200020 83 281 0.0 2.6 0.00 0.20 0.20 66 1011.8
20260904194521 84 236 0.0 3.5 0.00 0.20 0.20 66 1011.9
20260904193011 85 289 0.9 3.5 0.00 0.20 0.20 63 1012.1
20260904191510 85 313 0.9 3.5 0.00 0.20 0.20 64 1012.1
20260904190037 84 118 0.9 5.2 0.00 0.20 0.20 64 1012.3
20260904184536 85 328 0.0 3.5 0.00 0.20 0.20 65 1012.6
20260904183028 85 330 1.7 4.3 0.00 0.20 0.20 64 1012.7
20260904181526 85 195 1.7 5.2 0.00 0.20 0.20 65 1012.8
20260904180022 83 313 0.0 3.5 0.00 0.20 0.20 67 1012.7
20260904174519 84 214 0.0 4.3 0.00 0.20 0.20 65 1012.7
20260904173034 84 80 0.0 2.6 0.00 0.20 0.20 67 1012.9
20260904171516 84 285 0.0 6.1 0.00 0.20 0.20 68 1012.9
20260904170014 83 158 0.0 3.5 0.00 0.20 0.20 68 1012.9
20260904164530 82 228 0.0 3.5 0.00 0.20 0.20 68 1012.9
20260904163007 82 8 0.0 4.3 0.00 0.20 0.20 70 1013.0
20260904161502 83 297 0.9 3.5 0.00 0.21 0.20 68 1013.1
20260904160003 82 338 0.0 1.7 0.00 0.21 0.20 69 1013.3
20260904154528 82 326 0.0 3.5 0.00 0.21 0.20 70 1013.1
20260904153018 81 187 0.0 2.6 0.00 0.21 0.20 73 1013.3
20260904151518 81 39 0.0 4.3 0.00 0.21 0.20 72 1013.2
20260904150025 80 236 0.9 4.3 0.00 0.21 0.20 73 1013.3
20260904144511 80 150 0.0 2.6 0.00 0.21 0.20 75 1013.1
20260904143010 79 302 0.9 6.1 0.00 0.21 0.20 75 1013.2
20260904141506 79 290 0.9 2.6 0.00 0.21 0.20 78 1013.0
20260904140004 78 268 0.0 6.1 0.00 0.21 0.20 79 1013.0
20260904134539 77 290 1.7 6.1 0.00 0.21 0.20 80 1013.0
20260904133025 76 303 0.9 4.3 0.00 0.21 0.20 82 1013.1
20260904131518 76 239 0.9 4.3 0.00 0.21 0.20 84 1013.1
20260904130018 75 269 0.9 4.3 0.00 0.21 0.20 85 1013.1
20260904124513 74 286 0.0 7.8 0.00 0.21 0.20 87 1013.2
20260904123012 73 323 0.9 5.2 0.00 0.21 0.20 90 1013.1
20260904121509 72 273 0.0 3.5 0.00 0.21 0.20 91 1013.1